• In Deutschland
  • Länderverzeichnis
  • Für 7 Tage
  • Wassertemperatur
  • Satellitenkarten
  • Wetterkarte
  • Widgets
  • user-avatar
    Anmelden

    Stündliche Wetter Zweibrücken

    Heute, 20 September, Donnerstag

    Zeit Temperatur Niederschläge Wind Luftdruck Luftfeuchtigkeit
    00:00 +19°C° 0 mm 1 m/S 744 mmHg 86%
    01:00 +18°C° 0 mm 1 m/S 744 mmHg 87%
    02:00 +18°C° 0 mm 1 m/S 744 mmHg 87%
    03:00 +18°C° 0 mm 1 m/S 744 mmHg 88%
    04:00 +18°C° 0 mm 1 m/S 744 mmHg 88%
    05:00 +16°C° 0 mm 1 m/S 744 mmHg 88%
    06:00 +16°C° 0 mm 1 m/S 744 mmHg 87%
    07:00 +20°C° 0 mm 1 m/S 744 mmHg 79%
    08:00 +21°C° 0 mm 2 m/S 744 mmHg 70%
    09:00 +24°C° 0 mm 2 m/S 744 mmHg 61%
    10:00 +25°C° 0 mm 2 m/S 744 mmHg 57%
    11:00 +26°C° 0 mm 3 m/S 744 mmHg 53%
    12:00 +27°C° 0 mm 3 m/S 743 mmHg 49%
    13:00 +28°C° 0 mm 3 m/S 743 mmHg 49%
    14:00 +28°C° 0 mm 3 m/S 742 mmHg 49%
    15:00 +28°C° 0 mm 3 m/S 742 mmHg 49%
    16:00 +26°C° 0 mm 2 m/S 742 mmHg 56%
    17:00 +24°C° 0 mm 2 m/S 741 mmHg 63%
    18:00 +22°C° 0 mm 1 m/S 741 mmHg 70%
    19:00 +21°C° 0 mm 1 m/S 741 mmHg 71%
    20:00 +21°C° 0 mm 1 m/S 741 mmHg 73%
    21:00 +19°C° 0 mm 2 m/S 740 mmHg 75%
    22:00 +19°C° 0 mm 2 m/S 740 mmHg 75%
    23:00 +18°C° 0 mm 2 m/S 740 mmHg 75%

    Morgen, 21 September, Freitag

    Zeit Temperatur Niederschläge Wind Luftdruck Luftfeuchtigkeit
    00:00 +18°C° 0 mm 2 m/S 739 mmHg 76%
    01:00 +18°C° 0 mm 2 m/S 739 mmHg 76%
    02:00 +18°C° 0 mm 2 m/S 738 mmHg 76%
    03:00 +17°C° 0 mm 2 m/S 738 mmHg 76%
    04:00 +18°C° 0 mm 3 m/S 738 mmHg 74%
    05:00 +18°C° 0 mm 4 m/S 737 mmHg 73%
    06:00 +19°C° 0 mm 4 m/S 737 mmHg 71%
    07:00 +20°C° 0 mm 5 m/S 738 mmHg 66%
    08:00 +22°C° 0 mm 7 m/S 738 mmHg 60%
    09:00 +23°C° 0 mm 8 m/S 739 mmHg 55%
    10:00 +22°C° 0.1 mm 8 m/S 739 mmHg 61%
    11:00 +21°C° 0.1 mm 7 m/S 739 mmHg 68%
    12:00 +20°C° 0.1 mm 6 m/S 740 mmHg 74%
    13:00 +19°C° 0.2 mm 6 m/S 740 mmHg 70%
    14:00 +17°C° 0.2 mm 5 m/S 740 mmHg 67%
    15:00 +16°C° 0.2 mm 5 m/S 741 mmHg 63%
    16:00 +15°C° 0 mm 4 m/S 741 mmHg 64%
    17:00 +14°C° 0 mm 3 m/S 742 mmHg 65%
    18:00 +13°C° 0 mm 3 m/S 742 mmHg 66%
    19:00 +13°C° 0 mm 3 m/S 743 mmHg 67%
    20:00 +13°C° 0 mm 2 m/S 744 mmHg 68%
    21:00 +12°C° 0 mm 2 m/S 745 mmHg 69%
    22:00 +12°C° 0 mm 2 m/S 745 mmHg 69%
    23:00 +12°C° 0 mm 2 m/S 745 mmHg 69%

    übermorgen, 22 September, Samstag

    Zeit Temperatur Niederschläge Wind Luftdruck Luftfeuchtigkeit
    00:00 +12°C° 0 mm 2 m/S 745 mmHg 68%
    01:00 +12°C° 0 mm 2 m/S 745 mmHg 68%
    02:00 +12°C° 0 mm 2 m/S 746 mmHg 67%
    03:00 +12°C° 0 mm 2 m/S 746 mmHg 67%
    04:00 +12°C° 0 mm 2 m/S 746 mmHg 69%
    05:00 +12°C° 0 mm 2 m/S 746 mmHg 70%
    06:00 +10°C° 0 mm 2 m/S 746 mmHg 72%
    07:00 +12°C° 0 mm 3 m/S 747 mmHg 66%
    08:00 +13°C° 0 mm 3 m/S 747 mmHg 60%
    09:00 +15°C° 0 mm 4 m/S 747 mmHg 55%
    10:00 +17°C° 0 mm 4 m/S 747 mmHg 51%
    11:00 +18°C° 0 mm 4 m/S 747 mmHg 47%
    12:00 +19°C° 0 mm 4 m/S 747 mmHg 43%
    13:00 +19°C° 0 mm 4 m/S 746 mmHg 43%
    14:00 +19°C° 0 mm 4 m/S 746 mmHg 43%
    15:00 +19°C° 0 mm 3 m/S 746 mmHg 43%
    16:00 +17°C° 0 mm 3 m/S 746 mmHg 48%
    17:00 +16°C° 0 mm 2 m/S 746 mmHg 53%
    18:00 +14°C° 0 mm 1 m/S 746 mmHg 58%
    19:00 +14°C° 0 mm 1 m/S 746 mmHg 59%
    20:00 +14°C° 0 mm 1 m/S 746 mmHg 60%
    21:00 +13°C° 0 mm 0 m/S 746 mmHg 60%
    22:00 +14°C° 0 mm 1 m/S 746 mmHg 62%
    23:00 +13°C° 0 mm 1 m/S 745 mmHg 63%

    23 September, Sonntag

    Zeit Temperatur Niederschläge Wind Luftdruck Luftfeuchtigkeit
    00:00 +13°C° 0 mm 1 m/S 745 mmHg 65%
    01:00 +13°C° 0.1 mm 1 m/S 744 mmHg 69%
    02:00 +13°C° 0.1 mm 1 m/S 744 mmHg 73%
    03:00 +13°C° 0.1 mm 1 m/S 743 mmHg 77%
    04:00 +13°C° 0.3 mm 2 m/S 742 mmHg 79%
    05:00 +13°C° 0.3 mm 2 m/S 742 mmHg 82%
    06:00 +13°C° 0.3 mm 2 m/S 741 mmHg 85%
    07:00 +14°C° 0.1 mm 2 m/S 741 mmHg 83%
    08:00 +16°C° 0.1 mm 3 m/S 740 mmHg 81%
    09:00 +17°C° 0.1 mm 4 m/S 739 mmHg 79%
    10:00 +19°C° 0 mm 5 m/S 739 mmHg 75%
    11:00 +20°C° 0 mm 6 m/S 738 mmHg 71%
    12:00 +22°C° 0 mm 7 m/S 737 mmHg 68%
    13:00 +23°C° 0.1 mm 7 m/S 736 mmHg 67%
    14:00 +23°C° 0.1 mm 7 m/S 735 mmHg 67%
    15:00 +23°C° 0.1 mm 6 m/S 734 mmHg 66%
    16:00 +23°C° 0.3 mm 7 m/S 732 mmHg 67%
    17:00 +23°C° 0.3 mm 8 m/S 731 mmHg 68%
    18:00 +22°C° 0.3 mm 8 m/S 730 mmHg 70%
    19:00 +19°C° 0.4 mm 10 m/S 730 mmHg 66%
    20:00 +15°C° 0.4 mm 12 m/S 730 mmHg 63%
    21:00 +12°C° 0.4 mm 14 m/S 730 mmHg 59%
    22:00 +12°C° 0.4 mm 14 m/S 732 mmHg 66%
    23:00 +12°C° 0.4 mm 14 m/S 733 mmHg 72%

    24 September, Montag

    Zeit Temperatur Niederschläge Wind Luftdruck Luftfeuchtigkeit
    00:00 +10°C° 0.4 mm 14 m/S 735 mmHg 79%
    01:00 +10°C° 0.3 mm 12 m/S 738 mmHg 78%
    02:00 +10°C° 0.3 mm 9 m/S 741 mmHg 78%
    03:00 +10°C° 0.3 mm 7 m/S 744 mmHg 78%
    04:00 +9°C° 0 mm 7 m/S 745 mmHg 78%
    05:00 +8°C° 0 mm 6 m/S 746 mmHg 79%
    06:00 +8°C° 0 mm 5 m/S 747 mmHg 79%
    07:00 +9°C° 0.1 mm 5 m/S 748 mmHg 73%
    08:00 +10°C° 0.1 mm 6 m/S 748 mmHg 68%
    09:00 +13°C° 0.1 mm 6 m/S 749 mmHg 62%
    10:00 +13°C° 0.1 mm 6 m/S 750 mmHg 59%
    11:00 +13°C° 0.1 mm 6 m/S 750 mmHg 57%
    12:00 +14°C° 0.1 mm 5 m/S 750 mmHg 55%
    13:00 +14°C° 0.1 mm 5 m/S 751 mmHg 54%
    14:00 +14°C° 0.1 mm 5 m/S 751 mmHg 54%
    15:00 +14°C° 0.1 mm 5 m/S 751 mmHg 53%
    16:00 +12°C° 0 mm 4 m/S 751 mmHg 58%
    17:00 +11°C° 0 mm 3 m/S 752 mmHg 64%
    18:00 +9°C° 0 mm 3 m/S 752 mmHg 69%
    19:00 +9°C° 0 mm 2 m/S 753 mmHg 73%
    20:00 +8°C° 0 mm 2 m/S 754 mmHg 76%
    21:00 +7°C° 0 mm 2 m/S 754 mmHg 80%
    22:00 +6°C° 0 mm 2 m/S 755 mmHg 82%
    23:00 +6°C° 0 mm 2 m/S 755 mmHg 85%

    25 September, Dienstag

    Zeit Temperatur Niederschläge Wind Luftdruck Luftfeuchtigkeit
    00:00 +6°C° 0 mm 1 m/S 755 mmHg 87%
    01:00 +6°C° 0 mm 1 m/S 755 mmHg 88%
    02:00 +6°C° 0 mm 1 m/S 755 mmHg 89%
    03:00 +6°C° 0 mm 1 m/S 755 mmHg 89%
    04:00 +6°C° 0 mm 1 m/S 755 mmHg 89%
    05:00 +6°C° 0 mm 1 m/S 756 mmHg 89%
    06:00 +6°C° 0 mm 1 m/S 756 mmHg 89%
    07:00 +8°C° 0 mm 1 m/S 756 mmHg 80%
    08:00 +11°C° 0 mm 1 m/S 756 mmHg 71%
    09:00 +14°C° 0 mm 1 m/S 756 mmHg 62%
    10:00 +15°C° 0 mm 1 m/S 756 mmHg 58%
    11:00 +16°C° 0 mm 1 m/S 756 mmHg 55%
    12:00 +18°C° 0 mm 1 m/S 756 mmHg 51%
    13:00 +17°C° 0 mm 2 m/S 755 mmHg 51%
    14:00 +17°C° 0 mm 2 m/S 755 mmHg 51%
    15:00 +17°C° 0 mm 2 m/S 754 mmHg 51%
    16:00 +15°C° 0 mm 1 m/S 754 mmHg 58%
    17:00 +13°C° 0 mm 1 m/S 754 mmHg 66%
    18:00 +11°C° 0 mm 1 m/S 754 mmHg 73%
    19:00 +11°C° 0 mm 1 m/S 754 mmHg 75%
    20:00 +10°C° 0 mm 1 m/S 754 mmHg 77%
    21:00 +9°C° 0 mm 1 m/S 754 mmHg 80%
    22:00 +9°C° 0 mm 1 m/S 754 mmHg 81%
    23:00 +9°C° 0 mm 1 m/S 754 mmHg 82%
    Mehr zeigen